SL-16 DEB, 22421

Orbit data source: Space-Track

SL-16 DEB, 22421 is space debris in LEO originally from a launch on Fri, 25 Dec 1992 UTC launched from the Tyuratam Missile And Space Complex (TTMTR). Debris objects in space refer to the collection of defunct objects orbiting the Earth. Examples of debris include non-operational satellites, rocket bodies, and fragments generated from explosions, collisions, or faulty payload assembly.

Loading next visibility...
Identifier
22421, 1992-093DN
Orbit
LEO
Country
Flag of CISCIS
Related business
Manufacturer
Unknown
Mission
Spacecraft
Bus & Motor
Unknown
Mass
Unknown
Launch date (UTC)
1992-12-25 (33 years ago)
Launch vehicle
Unknown
Launch site
Tyuratam Missile And Space Complex (TTMTR)
Object type
Payload
Rocket body
Debris
Shape & HBR
Unknown shape, 0.1 m
Radar Cross Section
Small (<0.1 m²)

Expand to show TLE details & history
Last TLE update: 21 hours ago

TLE from 21 hours ago
0 SL-16 DEB
1 22421U 92093DN  25304.86810727  .00000920  00000-0  51104-3 0  9992
2 22421  71.0326 241.3409 0096451 294.5151 125.2773 14.11427597684890
Epoch: 2025-10-31T20:50Z
TLE epoch observation values (Epoch: 2025-10-31T20:50:04.468Z)
Latitude
55.66108°
Longitude
-81.55341°
Altitude
903.943 km
Speed
7.385 km/s
True Right ascension
18h 05m 29s
True Declination
55° 30' 14"
Sunlit
Object was in daylight at epoch
Visualization orbit readout
Latitude
Unknown
Longitude
Unknown
Altitude
Unknown
Speed
Unknown
Apparent Right ascension
Unknown
Apparent Declination
Unknown
Sunlit
N/A
Visualization observer readout
Local Sidereal Time
13:59:44
Azimuth
Unknown
Elevation
Unknown
Doppler factor
Unknown
Orbital elements
Apogee altitude
922.155 km
Perigee altitude
782.676 km
Semi-major axis
7,230.553 km
Eccentricity
0.00965
Inclination
71.0326°
RAAN
241.3409°
Arg. of periapsis
294.5151°
True anomaly
126.17331°
Mean anomaly
125.2773°
Eccentric anomaly
125.72593°
Mean motion
3.53009 °/min
Orbital period
101.98 mins
BSTAR
0.00051104
Loading maneuver chart data...
Computing Atmospheric mass density...
Loading historical data...
Loading historical data...
Loading historical data...
Loading historical data...
Loading historical data...
Loading historical data...
Loading historical data...

Documentation

Showing up to 5 results
|